Regional Weather Roundup
Issued by NWS

Home | Current Version | Previous Version | Graphics & Text | Print | Product List | Glossary On
Versions: 1 2 3 4 5 6 7 8 9 10 11 12 13 14 15 16 17 18 19 20 21 22 23 24 25 26 27 28 29 30 31 32 33 34 35 36 37 38 39 40 41 42 43 44 45 46 47 48 49 50
602
ASUS45 KCYS 250610
RWRWY

WYOMING REGIONAL WEATHER ROUNDUP
NATIONAL WEATHER SERVICE CHEYENNE WY
1100 PM MST FRI FEB 24 2017

NOTE:  "FAIR" INDICATES FEW OR NO CLOUDS BELOW 12,000 FEET
WITH NO SIGNIFICANT WEATHER AND/OR OBSTRUCTIONS TO VISIBILITY.

WYZ001-250700-
YELLOWSTONE NATIONAL PARK

CITY           SKY/WX    TMP DP  RH WIND       PRES   REMARKS
LK YELLOWSTONE   N/A      2   0  91 CALM      29.95S
6HR MIN TEMP:   2; 6HR MAX TEMP:  14; 6HR PCP:  0.01;

W YELLOWSTONE  NOT AVBL

$$
WYZ002>013-054>058-071-098>099-250700-
NORTHERN WYOMING

CITY           SKY/WX    TMP DP  RH WIND       PRES   REMARKS
JACKSON        FAIR      12  10  92 SW9       30.01S WCI   0
CODY           FAIR      14  12  92 CALM      29.99F FOG
GREYBULL       CLOUDY    27  23  85 W3        30.01S
6HR MIN TEMP:  27; 6HR MAX TEMP:  30;

WORLAND        CLOUDY    18  15  88 S7        30.00S WCI   9
6HR MIN TEMP:  17; 6HR MAX TEMP:  29;

SHERIDAN       MOCLDY    24  19  81 SW8       30.00R WCI  15
6HR MIN TEMP:  22; 6HR MAX TEMP:  27; 6HR PCP: TRACE;

BUFFALO        CLOUDY    21  15  78 NW9       29.95F WCI  11
6HR MIN TEMP:  16; 6HR MAX TEMP:  25;

GILLETTE       MOCLDY    17  12  80 SE3       29.96S
6HR MIN TEMP:  17; 6HR MAX TEMP:  25;

HULETT         MOCLDY    21  16  79 SW5       29.97F WCI  15
NEWCASTLE      FAIR      14  12  92 E3        30.00F

$$
WYZ014>020-022>026-101>103-250700-
CENTRAL WYOMING

CITY           SKY/WX    TMP DP  RH WIND       PRES   REMARKS
BIG PINEY      FAIR       0  -6  76 N5        30.00S WCI -10
6HR MIN TEMP:   0; 6HR MAX TEMP:  12;

PINEDALE       FAIR       0  -6  78 N5        30.00S WCI -10
DUBOIS         FAIR       7  -2  66 NW10      29.93R WCI  -8
LANDER         FAIR       9   5  84 CALM      29.96F
6HR MIN TEMP:   7; 6HR MAX TEMP:  18;

RIVERTON       FAIR       7   5  91 W9        29.97S WCI  -7
6HR MIN TEMP:   5; 6HR MAX TEMP:  20;

CASPER         MOCLDY    10   6  84 SW10      29.96S WCI  -4
6HR MIN TEMP:   9; 6HR MAX TEMP:  18;

DOUGLAS        FOG        0  -2  91 W3        29.98S VSB 1/4
6HR MIN TEMP:  -1; 6HR MAX TEMP:  16;


$$
WYZ021-027>030-104>119-250700-
SOUTHERN WYOMING

CITY           SKY/WX    TMP DP  RH WIND       PRES   REMARKS
EVANSTON       FAIR       8   1  73 S7        30.02F WCI  -3
6HR MIN TEMP:   5; 6HR MAX TEMP:  14;

FORT BRIDGER   FAIR      10   4  77 SW16      30.05S WCI  -7
ROCK SPRINGS   FAIR       9   3  77 SW16      30.01R WCI  -8
6HR MIN TEMP:   8; 6HR MAX TEMP:  18;

DIXON            N/A      3  -2  82 CALM      30.06S
RAWLINS        MOCLDY    10   3  73 SW17      29.96R WCI  -8
6HR MIN TEMP:  10; 6HR MAX TEMP:  17; 6HR PCP: TRACE;

SARATOGA       CLOUDY    12   5  73 SW14      29.98S WCI  -3
LARAMIE        FAIR       4  -1  80 SW7       29.90F WCI  -8
6HR MIN TEMP:   0; 6HR MAX TEMP:  16;

CHEYENNE       FAIR       6   2  83 W7        29.95F WCI  -6
6HR MIN TEMP:   3; 6HR MAX TEMP:  16;

TORRINGTON     CLOUDY     8   6  92 NW3       30.01F FOG
6HR MIN TEMP:   5; 6HR MAX TEMP:  18;

PINE BLUFFS    FAIR       3   0  85 MISG      30.01F

$$




USA.gov is the U.S. government's official web portal to all federal, state and local government web resources and services.